This is the latest recevied weather packets stored in our database for station/object YU7OR-2. If no packets are shown the sender has not sent any weather packets the latest 10 day(s).
| Time | Temp. | Humidity | Pressure | Rain* | Wind** | Luminosity | Snow |
|---|---|---|---|---|---|---|---|
| 1777105944 | 20.56° C | 47% | 1013.7 hPa | 0 mm | - | - | - |
| 1777105654 | 20.56° C | 47% | 1013.9 hPa | 0 mm | - | - | - |
| 1777105374 | 20° C | 47% | 1013.9 hPa | 0 mm | - | - | - |
| 1777105104 | 20° C | 48% | 1013.8 hPa | 0 mm | - | - | - |
| 1777104844 | 20° C | 47% | 1013.9 hPa | 0 mm | - | - | - |
| 1777104589 | 20° C | 47% | 1013.9 hPa | 0 mm | - | - | - |
| 1777104344 | 19.44° C | 47% | 1013.8 hPa | 0 mm | - | - | - |
| 1777104094 | 19.44° C | 47% | 1013.8 hPa | 0 mm | - | - | - |
| 1777103799 | 19.44° C | 47% | 1013.8 hPa | 0 mm | - | - | - |
| 1777103509 | 19.44° C | 48% | 1013.9 hPa | 0 mm | - | - | - |
| 1777103254 | 18.89° C | 48% | 1013.9 hPa | 0 mm | - | - | - |
| 1777102974 | 18.89° C | 48% | 1013.7 hPa | 0 mm | - | - | - |
| 1777102698 | 18.33° C | 48% | 1013.7 hPa | 0 mm | - | - | - |
| 1777102449 | 18.33° C | 48% | 1013.7 hPa | 0 mm | - | - | - |
| 1777102169 | 17.78° C | 49% | 1013.7 hPa | 0 mm | - | - | - |
| 1777101890 | 17.78° C | 49% | 1013.7 hPa | 0 mm | - | - | - |
| 1777101619 | 17.22° C | 49% | 1013.9 hPa | 0 mm | - | - | - |
| 1777101364 | 17.22° C | 49% | 1013.9 hPa | 0 mm | - | - | - |
| 1777101099 | 17.22° C | 49% | 1014 hPa | 0 mm | - | - | - |
| 1777100804 | 16.67° C | 49% | 1013.9 hPa | 0 mm | - | - | - |
| 1777100503 | 16.11° C | 49% | 1014.1 hPa | 0 mm | - | - | - |
| 1777100214 | 15.56° C | 50% | 1014.1 hPa | 0 mm | - | - | - |
| 1777099914 | 15° C | 50% | 1014.1 hPa | 0 mm | - | - | - |
| 1777099644 | 15° C | 50% | 1014.1 hPa | 0 mm | - | - | - |
| 1777099359 | 15° C | 52% | 1014 hPa | 0 mm | - | - | - |
* Rain latest hour (hover to see other rain measurements)
** Current wind speed in m/s (hover to see current wind gust speed)